Langdon, ND

7:00 AM CDT on September 26, 2017 (GMT -0500)
Langdon

Weather History for KD55 - October, 2012

Change the Weather History Date:

Tuesday, October 9, 2012

  Actual Average (KDVL) Record (KDVL)
Temperature  
Mean Temperature 34 °F -  
Max Temperature 41 °F 55 °F 82 °F (1955)
Min Temperature 28 °F 33 °F 20 °F (1964)
Degree Days  
Heating Degree Days 30    
Moisture  
Dew Point 30 °F    
Average Humidity 89    
Maximum Humidity 100    
Minimum Humidity 60    
Precipitation  
Precipitation 0.19 in - - ()
Sea Level Pressure  
Sea Level Pressure 29.82 in    
Wind  
Wind Speed 16 mph (NW)    
Max Wind Speed 26 mph    
Max Gust Speed 32 mph    
Visibility 9 miles    
Events Rain , Snow    
Averages and records for this station are not official NWS values.
T = Trace of Precipitation, MM = Missing Value Source: NWS Daily Summary

Daily Weather History Graph

Daily Weather History Graph

Search for Another Location

Airport or City:

Trip Planner

Search our weather history database for the weather conditions in past years. The results will help you decide how hot, cold, wet, or windy it might be!

Date:

Astronomy

Oct. 09, 2012 Rise Set
Actual Time 7:45 AM CDT 6:54 PM CDT
Civil Twilight 7:14 AM CDT 7:26 PM CDT
Nautical Twilight 6:37 AM CDT 8:02 PM CDT
Astronomical Twilight 6:00 AM CDT 8:39 PM CDT
Moon 12:54 AM CDT (10/9) 3:49 PM CDT (10/9)
Length of Visible Light 12h 12m
Length of Day
11h 09m
Last Quarter, 36% of the Moon is Illuminated
Oct 9
Last Quarter
Oct 15
New
Oct 21
First Quarter
Oct 29
Full
Nov 6
Last Quarter

Hourly Weather History & Observations

Time (CDT) Temp. Windchill Dew Point Humidity Pressure Visibility Wind Dir Wind Speed Gust Speed Precip Events Conditions
12:15 AM 35.6 °F 25.5 °F 32.0 °F 87% 29.59 in 10.0 mi WNW 17.3 mph 23.0 mph N/A   Mostly Cloudy
12:35 AM 35.6 °F 25.2 °F 32.0 °F 87% 29.59 in 10.0 mi WNW 18.4 mph - N/A   Overcast
12:55 AM 35.6 °F 25.5 °F 32.0 °F 87% 29.59 in 10.0 mi WNW 17.3 mph - N/A   Overcast
1:15 AM 35.6 °F 25.9 °F 32.0 °F 87% 29.59 in 10.0 mi WNW 16.1 mph - N/A   Overcast
1:35 AM 35.6 °F 24.8 °F 32.0 °F 87% 29.59 in 10.0 mi WNW 19.6 mph 23.0 mph N/A   Overcast
1:55 AM 33.8 °F 23.5 °F 32.0 °F 93% 29.59 in 9.0 mi WNW 16.1 mph - N/A   Overcast
2:15 AM 33.8 °F 23.2 °F 32.0 °F 93% 29.60 in 9.0 mi WNW 17.3 mph - N/A Rain Light Rain
3:15 AM 33.8 °F 24.8 °F 33.8 °F 100% 29.60 in 10.0 mi WNW 12.7 mph - N/A   Overcast
3:35 AM 33.8 °F 24.8 °F 33.8 °F 100% 29.60 in 9.0 mi WNW 12.7 mph - N/A   Overcast
3:55 AM 33.8 °F 24.3 °F 33.8 °F 100% 29.60 in 10.0 mi WNW 13.8 mph - N/A   Overcast
4:15 AM 33.8 °F 23.9 °F 33.8 °F 100% 29.61 in 6.0 mi NW 15.0 mph 19.6 mph N/A Rain Light Rain
4:35 AM 32.0 °F 19.5 °F 32.0 °F 100% 29.63 in 2.5 mi NNW 21.9 mph 29.9 mph 0.02 in   Overcast
4:55 AM 32.0 °F 21.2 °F 32.0 °F 100% 29.64 in 1.5 mi North 16.1 mph 21.9 mph 0.08 in Snow Light Snow
5:15 AM 32.0 °F 20.5 °F 32.0 °F 100% 29.66 in 2.0 mi North 18.4 mph - 0.03 in Snow Light Snow
5:35 AM 32.0 °F 20.8 °F 32.0 °F 100% 29.67 in 3.0 mi North 17.3 mph - 0.05 in Snow Light Snow
5:55 AM 32.0 °F 20.1 °F 32.0 °F 100% 29.69 in 4.0 mi North 19.6 mph 24.2 mph 0.05 in   Overcast
6:15 AM 32.0 °F 20.1 °F 32.0 °F 100% 29.70 in 6.0 mi North 19.6 mph - N/A Rain Light Rain
6:35 AM 32.0 °F 19.8 °F 32.0 °F 100% 29.71 in 3.0 mi North 20.7 mph 25.3 mph 0.01 in Snow Light Snow
6:55 AM 32.0 °F 20.1 °F 32.0 °F 100% 29.73 in 4.0 mi North 19.6 mph 27.6 mph 0.02 in Rain Light Rain
7:15 AM 32.0 °F 20.5 °F 32.0 °F 100% 29.74 in 3.0 mi North 18.4 mph 24.2 mph N/A Snow Light Snow
7:35 AM 32.0 °F 20.1 °F 32.0 °F 100% 29.76 in 10.0 mi North 19.6 mph 24.2 mph N/A   Overcast
7:55 AM 32.0 °F 20.8 °F 32.0 °F 100% 29.77 in 10.0 mi North 17.3 mph 24.2 mph N/A   Overcast
8:15 AM 32.0 °F 20.5 °F 32.0 °F 100% 29.78 in 10.0 mi NNW 18.4 mph 26.5 mph N/A   Overcast
8:35 AM 32.0 °F 20.8 °F 32.0 °F 100% 29.79 in 10.0 mi NNW 17.3 mph 23.0 mph N/A   Overcast
8:55 AM 32.0 °F 20.1 °F 30.2 °F 93% 29.80 in 10.0 mi NNW 19.6 mph 26.5 mph N/A   Overcast
9:15 AM 32.0 °F 19.2 °F 30.2 °F 93% 29.81 in 10.0 mi NNW 23.0 mph - N/A   Scattered Clouds
9:35 AM 32.0 °F 19.5 °F 30.2 °F 93% 29.82 in 10.0 mi NNW 21.9 mph 29.9 mph N/A   Partly Cloudy
9:55 AM 32.0 °F 19.5 °F 32.0 °F 100% 29.83 in 7.0 mi NNW 21.9 mph 29.9 mph N/A   Mostly Cloudy
10:15 AM 32.0 °F 18.4 °F 32.0 °F 100% 29.84 in 10.0 mi NNW 26.5 mph 32.2 mph N/A   Mostly Cloudy
10:35 AM 33.8 °F 20.8 °F 32.0 °F 93% 29.85 in 10.0 mi NNW 26.5 mph 31.1 mph N/A   Mostly Cloudy
10:55 AM 33.8 °F 22.2 °F 32.0 °F 93% 29.85 in 6.0 mi NNW 20.7 mph 28.8 mph N/A   Mostly Cloudy
11:15 AM 35.6 °F 23.7 °F 30.2 °F 81% 29.86 in 10.0 mi NNW 24.2 mph 29.9 mph N/A   Mostly Cloudy
11:35 AM 35.6 °F 24.5 °F 30.2 °F 81% 29.87 in 10.0 mi NNW 20.7 mph 28.8 mph N/A   Mostly Cloudy
11:55 AM 35.6 °F 24.5 °F 28.4 °F 75% 29.88 in 10.0 mi NNW 20.7 mph 28.8 mph N/A Rain Light Rain
12:15 PM 35.6 °F 24.0 °F 30.2 °F 81% 29.88 in 10.0 mi NNW 23.0 mph 26.5 mph N/A   Mostly Cloudy
12:35 PM 35.6 °F 24.8 °F 26.6 °F 70% 29.88 in 10.0 mi North 19.6 mph 31.1 mph N/A   Mostly Cloudy
12:55 PM 37.4 °F 27.2 °F 28.4 °F 70% 29.88 in 10.0 mi NNW 19.6 mph 26.5 mph N/A   Mostly Cloudy
1:15 PM 37.4 °F 27.2 °F 26.6 °F 65% 29.89 in 10.0 mi NNW 19.6 mph 24.2 mph N/A   Mostly Cloudy
1:35 PM 37.4 °F 27.5 °F 28.4 °F 70% 29.89 in 10.0 mi NNW 18.4 mph 24.2 mph N/A   Overcast
1:55 PM 37.4 °F 27.8 °F 24.8 °F 60% 29.89 in 10.0 mi NNW 17.3 mph 21.9 mph N/A   Overcast
2:15 PM 35.6 °F 27.1 °F 26.6 °F 70% 29.89 in 10.0 mi NNW 12.7 mph - N/A Rain Light Rain
2:35 PM 37.4 °F 27.5 °F 24.8 °F 60% 29.89 in 10.0 mi NNW 18.4 mph 24.2 mph N/A   Overcast
2:55 PM 37.4 °F 27.5 °F 26.6 °F 65% 29.89 in 10.0 mi NW 18.4 mph 21.9 mph N/A   Mostly Cloudy
3:15 PM 37.4 °F 27.2 °F 28.4 °F 70% 29.90 in 10.0 mi NW 19.6 mph 27.6 mph N/A   Overcast
3:35 PM 37.4 °F 28.9 °F 30.2 °F 75% 29.90 in 10.0 mi NW 13.8 mph - N/A   Mostly Cloudy
3:55 PM 41.0 °F 33.5 °F 30.2 °F 65% 29.91 in 10.0 mi North 13.8 mph - N/A   Mostly Cloudy
4:15 PM 35.6 °F 25.9 °F 28.4 °F 75% 29.91 in 10.0 mi NW 16.1 mph 19.6 mph 0.01 in   Overcast
4:35 PM 37.4 °F 27.8 °F 30.2 °F 75% 29.91 in 10.0 mi NW 17.3 mph - 0.01 in   Overcast
4:55 PM 35.6 °F 25.9 °F 30.2 °F 81% 29.92 in 10.0 mi WNW 16.1 mph - 0.01 in   Overcast
5:15 PM 35.6 °F 26.6 °F 28.4 °F 75% 29.93 in 10.0 mi NW 13.8 mph - N/A   Overcast
5:35 PM 35.6 °F 26.2 °F 28.4 °F 75% 29.93 in 10.0 mi WNW 15.0 mph - N/A   Overcast
5:55 PM 35.6 °F 26.6 °F 32.0 °F 87% 29.94 in 10.0 mi NW 13.8 mph 19.6 mph N/A   Overcast
6:15 PM 32.0 °F 24.8 °F 30.2 °F 93% 29.94 in 7.0 mi NNW 8.1 mph - 0.03 in Snow Light Snow
6:35 PM 32.0 °F 23.0 °F 32.0 °F 100% 29.95 in 10.0 mi WNW 11.5 mph - 0.03 in   Mostly Cloudy
6:55 PM 32.0 °F 24.8 °F 32.0 °F 100% 29.95 in 10.0 mi NW 8.1 mph - 0.03 in   Overcast
7:15 PM 32.0 °F 26.4 °F 32.0 °F 100% 29.96 in 10.0 mi NW 5.8 mph - N/A   Overcast
7:35 PM 32.0 °F 26.4 °F 32.0 °F 100% 29.96 in 10.0 mi NW 5.8 mph - N/A   Overcast
7:55 PM 32.0 °F 26.4 °F 28.4 °F 87% 29.96 in 10.0 mi WNW 5.8 mph - N/A   Overcast
8:15 PM 32.0 °F 27.5 °F 30.2 °F 93% 29.96 in 10.0 mi WNW 4.6 mph - N/A   Overcast
8:35 PM 32.0 °F 26.4 °F 32.0 °F 100% 29.96 in 10.0 mi West 5.8 mph - N/A   Overcast
8:55 PM 32.0 °F 26.4 °F 30.2 °F 93% 29.96 in 10.0 mi West 5.8 mph - N/A   Overcast
9:15 PM 30.2 °F 23.4 °F 30.2 °F 100% 29.96 in 10.0 mi West 6.9 mph - N/A   Partly Cloudy
9:35 PM 28.4 °F 23.3 °F 28.4 °F 100% 29.97 in 10.0 mi West 4.6 mph - N/A   Clear
9:55 PM 28.4 °F 23.3 °F 28.4 °F 100% 29.96 in 10.0 mi WNW 4.6 mph - N/A   Clear
10:15 PM 28.4 °F 22.2 °F 28.4 °F 100% 29.96 in 10.0 mi WNW 5.8 mph - N/A   Clear
10:35 PM 28.4 °F 23.3 °F 28.4 °F 100% 29.96 in 10.0 mi NW 4.6 mph - N/A   Scattered Clouds
10:55 PM 30.2 °F 25.4 °F 28.4 °F 93% 29.96 in 10.0 mi NW 4.6 mph - N/A   Overcast
11:15 PM 30.2 °F 26.7 °F 26.6 °F 86% 29.97 in 10.0 mi WNW 3.5 mph - N/A   Overcast
11:35 PM 28.4 °F - 26.6 °F 93% 29.96 in 10.0 mi Calm Calm - N/A   Overcast
11:55 PM 28.4 °F 24.6 °F 26.6 °F 93% 29.96 in 10.0 mi West 3.5 mph - N/A   Overcast